Theta_e
329 328 327 325 324 324 324 323 321 322 323 325 325 326 327 327 327 327 328 329 329 330 331 331 331 331 331 331 329 329 329 331 331 329 327 328 329 330 329 328 328 327 326 325 325 325 325 325 324 324 323 322 322 322 323 322 322 321 321 320 319 319 318 318 318 317 317 316 315
327 327 325 321 321 323 324 323 321 321 322 325 326 326 327 327 327 327 328 328 329 330 331 332 331 331 331 330 329 329 329 330 330 329 328 329 329 330 329 328 328 327 326 325 325 325 325 325 325 324 323 322 322 322 322 322 322 321 320 319 319 319 319 318 318 318 317 317 316
326 326 326 324 324 324 324 324 323 322 323 325 326 326 327 327 327 327 327 328 329 330 331 332 331 331 331 330 329 329 328 330 330 330 329 329 329 329 329 328 328 327 325 325 325 325 325 325 324 323 322 322 322 321 322 323 321 321 320 320 320 320 319 319 319 319 318 318 317
325 326 326 325 324 324 324 325 324 323 323 324 326 326 326 327 327 327 328 329 329 330 331 332 331 331 330 330 330 329 328 327 329 329 329 329 329 329 329 328 327 326 326 325 325 325 325 325 324 323 322 322 321 322 322 322 321 321 320 320 320 320 320 319 319 319 319 318 317
324 325 326 325 325 325 325 325 324 323 323 324 325 325 326 327 327 327 327 328 328 329 331 332 332 331 330 330 330 329 328 327 325 327 329 329 329 328 328 328 327 327 326 325 325 325 325 325 324 324 323 322 322 322 322 322 321 321 321 321 321 320 320 320 320 320 320 318 318
323 325 326 326 326 325 325 325 324 324 323 324 324 325 326 326 326 327 327 327 328 329 329 329 330 329 329 330 330 329 328 328 327 327 328 329 329 328 328 327 327 327 326 325 324 324 325 325 324 324 323 323 322 322 322 323 321 320 320 321 320 321 321 320 320 320 320 318 318
322 325 325 325 325 325 325 325 324 324 324 324 324 324 325 326 326 326 327 328 328 328 328 328 329 329 330 330 330 329 329 328 328 328 328 328 329 328 327 327 327 327 326 325 325 324 324 325 325 323 322 321 321 322 322 322 321 320 320 320 320 321 321 321 321 320 320 319 318
320 323 324 324 324 325 324 324 324 324 323 323 323 324 325 325 325 326 326 327 328 328 328 329 330 331 330 330 330 329 328 328 327 328 328 328 328 328 327 327 326 326 326 325 325 324 324 325 324 324 323 322 322 322 322 322 320 320 320 320 320 321 321 321 321 321 320 319 318
318 320 322 323 324 324 324 324 324 323 323 323 323 324 324 325 325 326 326 327 327 327 328 330 330 330 331 330 330 329 328 328 328 328 328 328 328 328 327 327 326 326 326 326 325 325 325 325 324 324 324 323 322 322 322 322 321 320 320 320 320 320 321 321 321 321 320 319 319
316 319 321 322 323 324 324 324 324 323 323 322 323 323 323 322 324 325 326 327 326 327 328 330 330 330 330 330 329 329 329 328 329 328 328 327 327 327 327 327 326 326 326 326 325 325 325 324 324 324 324 324 323 322 322 322 321 320 320 320 320 320 321 321 321 321 320 319 319
316 318 320 322 323 323 323 324 323 323 322 323 322 323 323 321 323 325 326 326 326 327 328 329 330 330 330 330 330 330 329 328 329 328 328 327 327 327 327 326 326 326 326 326 326 325 325 325 324 324 323 324 323 323 322 322 321 320 320 320 320 320 320 320 320 321 321 320 319
317 319 320 322 323 323 323 323 323 323 322 322 323 323 324 324 324 325 325 326 326 327 328 329 329 330 330 330 330 330 329 330 329 329 328 328 328 327 327 326 326 325 325 326 326 326 325 325 324 324 323 323 323 323 322 321 321 320 320 320 320 320 320 320 320 320 321 321 319
318 319 320 322 322 323 323 323 323 323 323 322 322 323 324 324 324 325 325 325 326 327 328 329 329 329 330 330 331 330 330 330 329 329 328 328 328 327 327 326 325 325 325 326 326 326 325 325 324 324 323 323 323 323 323 322 321 320 320 320 320 320 320 320 320 320 320 320 319
319 319 321 322 322 323 323 323 323 323 322 322 323 323 324 324 324 324 325 325 326 326 327 328 328 328 329 330 330 330 330 330 329 329 328 327 328 327 327 326 326 325 325 326 326 325 325 325 325 324 324 323 323 323 323 322 321 320 320 319 319 320 320 320 320 320 320 320 319
318 319 320 322 323 323 323 323 323 323 323 322 323 323 324 324 323 323 324 326 326 327 328 328 328 328 328 329 329 330 330 330 330 329 328 328 328 327 327 327 326 325 325 325 326 325 325 325 325 325 324 323 323 323 323 323 322 321 320 319 319 319 320 320 320 320 320 320 319
318 319 320 322 322 323 323 324 324 323 323 323 323 324 324 324 324 324 325 325 326 327 327 327 328 328 328 327 328 329 330 330 330 329 329 328 328 327 327 327 326 325 325 325 325 325 325 325 325 325 324 323 323 323 323 323 322 321 320 320 319 319 320 320 320 320 320 319 319
318 319 320 322 322 323 323 324 324 324 324 323 324 324 325 324 324 324 323 325 326 327 326 326 327 328 327 326 327 328 329 330 330 329 329 328 328 327 327 326 326 325 325 325 325 325 325 326 326 325 324 324 323 323 323 323 322 322 321 320 320 320 319 319 320 320 320 319 318
319 320 321 322 322 323 323 324 324 324 323 324 324 324 324 324 324 324 324 324 326 326 326 326 327 327 327 327 328 328 329 330 330 329 329 328 328 327 327 326 326 326 325 325 325 325 325 325 325 325 324 324 323 323 323 322 322 322 321 321 320 320 320 319 320 320 320 319 319
319 320 321 322 323 323 324 324 324 324 324 324 324 325 324 324 324 324 325 325 325 326 326 326 326 327 327 327 328 327 327 329 329 329 329 329 328 327 327 327 326 326 326 325 325 325 325 325 325 325 324 324 324 323 323 323 322 322 321 321 320 320 320 320 320 320 321 320 319
319 320 322 323 323 324 324 324 324 325 325 325 325 324 324 324 324 324 325 325 325 326 326 326 326 326 326 326 327 327 327 328 329 329 329 329 328 327 327 327 326 326 326 326 325 325 325 325 325 325 324 324 323 323 323 323 322 322 321 321 321 321 320 320 320 321 321 321 320
319 321 323 324 324 325 325 325 325 325 325 325 324 324 323 324 324 325 325 325 325 325 326 325 325 325 326 326 326 327 327 328 329 329 329 328 327 327 326 326 326 326 326 326 325 325 325 325 325 325 324 323 323 323 323 323 322 322 321 321 321 321 321 320 321 321 321 321 321
320 322 323 325 325 325 326 325 325 325 325 324 324 324 324 324 324 325 325 326 325 325 325 325 325 325 325 326 326 326 327 327 328 329 328 328 327 326 326 326 326 326 326 326 325 325 325 325 325 325 324 323 323 323 322 322 322 322 321 321 321 321 321 321 321 321 321 321 321
320 322 324 325 325 324 324 325 324 324 324 324 323 324 324 323 324 325 326 326 326 325 326 325 325 325 325 326 326 326 326 327 328 328 328 327 326 326 325 325 325 324 324 325 325 325 325 324 324 324 323 323 323 323 322 322 322 321 321 321 321 321 321 321 321 321 321 321 321
320 323 325 325 326 325 325 325 324 323 323 323 323 323 323 324 325 325 326 326 326 326 326 326 326 326 326 325 326 326 326 326 327 327 327 326 326 325 324 324 324 323 323 324 323 322 322 322 323 323 322 322 322 322 323 323 322 322 321 321 321 320 320 320 320 320 320 320 320
320 323 324 325 325 325 325 325 324 323 323 323 323 323 324 324 325 325 326 326 326 326 326 325 325 326 326 325 325 326 326 326 326 326 325 325 324 324 323 323 323 323 322 320 312 308 309 312 317 321 322 322 322 322 322 322 322 322 321 321 320 320 320 320 320 320 320 320 321
318 321 323 324 326 326 325 325 324 324 323 323 323 323 323 323 324 324 324 324 324 323 323 323 323 322 321 324 324 324 325 325 325 324 323 322 322 322 322 322 322 323 321 314 306 303 303 305 307 312 317 323 322 322 322 322 321 321 321 321 320 319 319 319 319 320 319 319 319
316 319 321 322 324 325 326 325 325 324 324 323 323 323 323 323 322 322 322 322 322 321 321 321 321 317 316 322 322 323 323 323 323 323 322 321 321 321 321 321 321 322 319 309 303 301 301 302 303 305 311 322 322 322 321 321 321 321 320 320 320 320 319 318 317 315 313 311 310
314 318 320 321 321 322 323 325 325 324 324 323 322 322 322 321 320 320 320 320 320 320 320 321 320 319 318 321 322 322 322 322 322 322 321 321 320 320 320 321 321 319 313 305 302 300 300 299 300 302 305 313 320 322 321 321 320 320 320 320 320 318 317 315 312 310 307 304 303
313 316 319 320 320 320 321 322 322 323 323 322 322 321 321 320 319 319 318 319 319 320 320 320 320 320 320 321 322 322 322 322 321 321 320 320 320 320 320 321 321 316 308 301 300 300 299 299 299 300 302 306 316 321 322 321 320 320 320 320 318 315 312 310 308 306 304 302 301
313 316 318 319 319 320 320 320 321 322 322 322 321 321 320 319 319 318 318 319 319 319 320 320 320 320 320 321 322 322 321 321 320 320 320 319 319 319 319 318 321 316 308 298 298 298 298 298 299 299 300 302 311 318 322 321 320 318 316 314 312 310 308 307 305 303 302 301 299
315 317 318 319 319 319 319 320 321 321 321 321 321 321 320 319 318 318 318 319 319 318 318 319 319 319 319 321 321 321 320 320 320 320 319 319 317 317 319 320 320 313 304 296 297 297 298 298 298 298 298 299 306 314 320 318 315 312 309 307 307 307 306 306 304 302 300 300 298
317 318 318 318 318 319 319 320 320 321 321 321 321 320 319 318 318 318 318 318 318 318 318 318 319 319 319 320 320 320 320 320 320 319 319 319 319 319 318 317 313 305 299 297 298 299 299 299 299 299 299 299 303 308 311 310 308 306 304 304 304 304 304 303 301 300 299 299 297
317 318 318 318 318 319 319 320 320 321 321 321 320 320 319 318 318 319 319 319 319 319 319 318 318 318 318 319 319 319 319 319 319 318 317 317 317 313 309 305 304 300 297 298 298 297 297 297 297 297 296 296 300 303 304 303 301 300 299 299 298 298 298 298 298 298 298 297 297
318 318 318 318 318 318 319 320 320 318 317 316 317 317 317 318 318 317 316 315 316 317 318 318 318 319 319 319 319 319 318 317 318 317 315 312 309 306 304 302 301 297 295 296 296 296 296 296 296 296 296 296 299 299 299 297 297 296 295 294 294 294 294 295 295 295 295 296 296
318 318 317 315 315 314 314 314 314 312 311 310 310 311 311 312 312 312 311 309 309 311 312 312 312 313 314 315 316 316 314 311 310 308 306 305 303 301 299 298 297 295 294 295 295 296 295 295 295 295 295 295 297 297 295 294 293 292 291 291 290 291 291 291 291 292 292 293 293
318 316 313 310 310 309 309 308 308 308 307 306 306 305 305 306 307 307 307 305 306 306 306 306 305 305 304 304 304 304 303 304 302 302 301 300 299 298 297 296 295 294 293 294 295 295 295 295 294 295 295 296 295 294 293 291 290 289 289 288 288 288 288 288 288 289 289 290 290
312 310 308 306 306 305 305 304 304 304 303 302 302 302 302 302 303 303 304 303 302 302 301 301 300 299 298 298 298 298 299 299 299 298 298 297 297 296 295 294 294 293 292 293 294 294 294 294 294 294 294 294 293 292 291 290 289 288 287 286 286 286 286 286 286 287 287 287 288
306 305 304 303 302 302 301 301 300 300 299 299 299 299 299 299 299 300 300 298 299 298 297 296 296 295 295 294 294 294 294 295 295 295 295 295 295 294 293 292 292 291 291 292 292 293 294 294 293 293 293 293 292 291 290 289 287 287 286 285 285 285 285 285 285 285 286 286 286
302 301 301 300 300 299 298 298 297 297 296 296 296 296 296 297 297 297 296 296 295 295 293 292 292 292 292 291 291 290 290 291 291 291 291 292 291 291 291 290 290 290 290 291 291 292 293 293 292 292 292 291 291 290 289 288 286 286 285 285 284 284 284 285 285 285 285 285 286
299 299 298 298 297 296 295 295 294 294 294 294 293 293 293 294 294 294 294 293 293 292 291 290 290 290 289 289 288 288 287 287 288 288 288 289 289 289 289 289 289 289 290 290 290 291 292 292 291 291 291 291 290 289 288 287 286 285 284 284 284 283 283 284 284 284 284 284 285
296 296 296 295 295 294 293 292 292 292 292 291 291 291 291 292 292 292 292 291 291 290 289 289 288 288 288 287 286 286 285 285 285 286 286 286 287 288 288 288 288 288 289 289 290 290 291 291 291 291 290 290 290 289 288 287 285 284 284 284 283 283 283 283 283 283 283 283 283
Wind_Speed
16 14 12 11 11 11 10 9 8 8 9 10 10 11 11 11 11 11 10 10 10 9 9 9 10 11 12 15 15 15 14 14 13 13 13 14 14 14 14 14 15 14 14 14 13 13 12 13 11 9 7 6 7 8 8 8 9 8 8 8 8 8 9 11 11 10 9 7 5
17 15 13 11 11 10 10 9 8 7 8 9 10 10 11 11 11 11 11 11 10 9 9 9 10 12 14 16 15 15 14 13 14 13 13 14 14 14 14 14 15 15 15 14 14 12 11 12 11 9 7 6 7 8 9 9 9 9 9 10 8 8 8 10 11 10 9 7 5
17 15 13 12 11 11 10 9 9 9 9 9 9 10 10 10 10 10 10 11 11 10 10 9 11 13 15 16 14 14 14 13 14 14 13 13 13 13 13 13 15 16 16 14 13 12 11 12 10 9 7 7 8 8 9 9 8 8 9 10 8 7 7 8 10 10 8 5 5
17 16 14 13 14 13 12 10 11 11 11 10 10 10 10 10 10 10 10 11 11 11 11 10 11 12 14 14 14 14 13 13 14 14 13 13 13 13 13 14 15 16 16 15 14 14 13 12 9 8 8 8 9 9 9 9 8 7 7 8 7 7 7 7 8 9 8 6 5
17 16 15 14 15 15 14 12 13 13 12 10 10 10 10 9 9 10 10 10 11 11 12 13 12 12 13 14 15 15 14 14 13 13 13 13 13 13 13 14 15 15 15 15 15 15 14 13 9 7 8 9 8 8 9 10 8 7 6 6 6 7 7 7 7 8 7 6 4
17 17 16 16 17 16 15 14 15 14 13 11 11 11 10 9 10 10 11 11 12 12 13 13 13 12 13 14 14 14 14 14 13 13 13 14 13 12 13 14 15 15 15 15 16 15 15 14 9 7 7 8 8 9 10 10 8 7 7 6 6 6 7 8 7 7 7 7 6
16 17 18 18 19 18 17 17 16 15 14 12 13 13 13 12 12 13 13 12 12 12 12 12 12 13 14 15 14 14 14 13 13 14 14 14 13 13 13 13 15 15 15 15 15 15 14 13 9 8 7 7 7 10 11 10 9 8 8 7 6 6 7 9 8 7 8 10 10
15 17 18 19 20 20 20 20 17 15 14 12 13 15 16 15 15 15 14 13 12 12 12 11 13 14 15 15 15 14 14 14 13 14 14 14 14 14 14 14 14 15 15 15 16 16 15 12 10 8 8 7 7 9 11 12 11 10 10 9 7 6 6 8 9 9 9 11 12
11 14 16 17 17 18 19 19 17 16 15 14 15 16 17 17 17 16 15 13 13 12 12 12 14 15 16 17 16 15 14 14 14 14 15 15 15 15 14 14 14 14 14 15 16 17 16 12 10 9 9 8 8 10 12 13 13 12 11 9 8 7 7 8 9 10 10 12 13
10 13 14 13 13 14 14 15 15 16 16 16 16 16 16 16 16 16 15 13 12 13 13 13 14 16 17 17 17 15 14 14 14 15 15 16 16 16 15 14 14 14 13 14 15 16 16 13 11 10 10 10 11 12 13 14 14 13 12 8 9 9 9 8 9 10 11 12 13
11 12 13 12 12 12 12 13 13 14 15 15 15 15 15 15 16 15 14 13 13 14 15 15 16 16 16 17 16 15 15 14 14 15 15 15 15 16 16 15 15 14 14 14 14 14 14 12 12 13 13 11 13 13 14 14 15 14 12 9 10 11 12 10 10 10 11 12 13
12 11 12 13 13 13 13 13 12 12 13 13 14 14 14 15 15 15 15 14 15 15 16 16 16 17 16 15 15 15 15 15 15 15 15 14 15 16 16 16 16 15 15 14 14 13 13 13 13 15 15 14 13 13 14 15 15 15 14 12 12 13 13 13 12 11 11 12 13
12 10 12 13 14 14 13 12 11 11 11 12 12 13 13 14 15 15 16 16 16 15 15 15 16 16 16 15 15 15 15 15 16 16 15 14 15 15 16 16 16 16 15 15 14 13 13 14 15 16 17 16 14 14 15 17 16 16 15 14 14 14 14 14 13 12 12 12 13
12 10 11 13 14 14 13 12 10 10 10 12 12 12 12 13 14 14 15 15 16 15 15 14 15 15 14 15 15 15 16 16 16 16 16 15 14 15 16 16 16 16 15 14 15 15 15 15 16 16 17 17 16 16 16 17 17 17 16 16 15 15 14 14 14 13 13 14 14
12 10 10 13 14 13 12 12 10 9 10 11 11 12 12 12 12 13 13 14 15 15 14 14 13 13 14 14 15 16 16 16 17 17 16 15 15 15 16 16 17 17 16 15 15 16 16 17 17 16 16 17 17 17 17 17 17 17 17 17 16 15 15 14 13 13 14 15 14
12 9 10 12 13 13 12 11 9 9 10 10 11 11 12 12 11 12 12 13 13 12 12 13 13 12 12 13 15 16 16 16 17 17 17 16 15 15 15 16 17 17 17 17 16 16 16 17 16 16 16 16 16 17 17 17 17 18 18 17 17 16 15 14 14 14 14 15 15
13 10 9 12 14 14 13 12 10 9 10 10 11 12 12 12 11 11 12 13 12 11 12 13 13 12 12 13 14 15 15 16 16 16 16 16 15 15 15 15 16 17 18 18 17 16 16 16 15 15 15 16 16 16 17 17 17 17 18 18 17 17 16 15 14 14 15 15 15
15 11 10 13 15 15 15 14 12 11 11 11 12 12 12 12 12 11 12 13 13 13 14 14 13 13 13 14 14 14 14 15 15 16 16 16 16 15 15 15 15 16 17 17 17 16 16 17 16 15 14 15 15 15 16 16 16 16 17 17 17 17 17 16 15 15 15 16 16
15 12 11 14 15 16 15 14 13 13 12 12 12 12 12 13 13 13 12 13 14 15 15 15 13 13 14 15 15 14 13 15 16 16 17 16 16 16 15 14 14 15 15 16 16 16 17 17 16 15 14 14 14 15 15 15 15 16 16 17 17 17 17 17 16 16 16 16 16
15 11 11 14 15 16 15 14 14 14 13 12 13 13 13 13 13 14 14 14 14 15 16 15 14 14 14 15 16 15 14 13 15 16 16 16 16 16 15 15 15 15 15 15 15 16 17 17 17 16 15 15 15 15 15 15 15 15 15 15 16 16 16 16 17 17 17 16 16
13 9 10 13 14 15 15 14 14 14 13 13 14 14 14 13 13 14 14 14 15 15 15 15 15 15 15 16 16 16 14 12 14 15 15 14 15 15 15 15 15 15 15 15 15 16 17 17 17 16 16 16 16 16 16 16 16 16 16 15 15 16 16 16 17 17 17 16 16
12 7 7 10 12 13 13 13 13 13 13 13 14 14 14 13 13 13 14 14 14 15 15 15 15 15 16 16 16 15 14 12 13 13 13 13 13 13 14 13 14 14 14 14 14 15 16 17 16 15 15 14 16 16 17 16 16 17 17 16 16 16 16 16 17 17 17 17 17
12 5 4 7 9 11 12 13 13 13 13 13 13 14 14 13 12 12 13 13 13 14 14 14 14 14 15 15 15 14 13 12 12 12 11 11 11 12 12 12 13 13 12 11 12 13 14 14 13 13 12 11 13 15 16 16 16 17 17 17 17 17 16 16 16 16 17 16 16
12 5 2 5 8 10 11 12 13 13 14 14 14 14 14 13 13 13 13 13 13 13 12 11 11 12 13 13 13 13 13 12 12 11 11 11 11 11 11 11 11 11 10 8 9 10 11 10 10 9 9 9 10 12 13 14 14 15 15 16 16 16 15 15 15 16 16 16 15
13 7 1 4 6 9 10 12 13 13 14 14 14 14 14 14 14 14 13 13 13 12 11 10 10 10 10 10 11 12 12 13 12 12 11 11 10 9 9 9 9 9 8 6 7 8 9 8 8 7 7 7 8 9 10 11 11 12 13 13 14 14 13 13 14 14 15 15 15
12 8 5 5 5 7 10 11 12 13 13 13 14 14 14 14 14 14 14 13 12 11 11 10 9 8 7 8 9 10 11 11 11 12 11 10 9 8 8 7 7 6 6 5 6 8 9 10 9 9 8 7 8 8 8 8 9 10 11 12 12 12 12 12 12 13 13 12 12
11 8 7 9 8 6 7 9 10 11 12 13 13 13 13 13 12 12 12 12 11 10 9 8 8 6 6 7 9 10 10 10 10 11 11 10 9 8 7 5 5 5 5 6 7 9 10 11 11 10 9 9 8 8 8 7 8 9 11 11 11 11 11 11 10 9 8 6 6
13 10 9 11 11 10 8 6 7 8 9 11 11 11 10 10 10 9 9 9 9 9 8 7 6 5 5 6 8 10 10 10 9 9 9 8 7 6 5 4 4 4 4 6 8 9 10 11 11 11 10 9 8 8 8 8 9 9 10 10 10 10 9 8 7 7 7 7 6
14 12 11 12 13 13 12 10 9 8 8 9 9 8 8 7 7 6 6 6 7 7 7 6 5 4 4 5 7 9 9 9 8 7 6 6 7 7 7 6 5 4 5 6 8 10 10 10 11 11 10 9 8 7 7 8 8 9 9 9 8 7 7 8 8 8 9 9 9
13 13 13 14 14 13 12 12 11 10 8 8 8 8 8 7 6 6 6 6 7 7 6 5 5 6 6 6 7 8 8 7 7 6 6 7 8 8 7 6 6 5 5 7 9 10 10 10 10 10 10 10 8 7 7 7 8 7 6 5 6 7 9 10 10 11 11 10 11
13 13 14 14 14 13 12 11 11 10 9 8 8 9 9 9 8 8 7 7 6 5 5 6 7 8 8 7 6 7 7 7 7 7 8 8 7 7 7 7 6 5 5 7 8 8 8 8 8 9 9 9 6 4 3 4 4 4 4 5 6 8 9 10 11 12 12 13 13
12 13 15 15 14 13 12 11 11 10 9 9 9 9 9 9 8 7 6 6 6 5 6 6 7 8 8 7 6 6 7 6 7 8 8 8 7 6 4 3 3 4 5 7 7 6 6 6 6 6 5 5 4 5 6 7 7 8 8 8 8 8 8 8 9 10 11 12 13
11 13 15 17 16 15 14 13 11 9 8 8 9 9 9 8 7 6 5 5 6 6 7 7 8 8 8 7 7 7 7 7 8 8 7 5 4 5 6 5 4 5 7 10 11 11 12 13 14 14 14 12 10 10 11 12 10 10 10 11 11 11 11 11 9 8 8 8 10
11 11 12 14 14 14 14 15 11 6 3 3 4 5 5 6 5 4 3 3 3 3 4 4 5 6 7 7 8 8 7 5 5 5 5 7 9 9 9 7 5 5 8 14 16 17 18 19 19 19 18 15 13 12 13 13 12 12 13 13 13 13 13 13 12 10 8 7 7
10 8 6 5 4 3 4 6 5 5 7 8 8 8 7 5 4 4 4 5 5 5 5 5 5 4 4 3 3 4 6 8 9 10 10 11 12 12 12 10 8 8 10 15 19 21 22 22 22 21 18 15 13 13 14 15 14 15 15 15 15 15 15 14 13 12 10 9 9
6 4 6 8 9 9 9 10 10 11 12 12 12 12 11 10 8 7 7 8 10 10 11 12 12 12 13 12 12 12 13 14 14 14 13 13 14 15 14 13 11 11 10 10 17 21 24 24 23 21 19 15 13 12 13 13 13 15 16 17 16 16 16 15 14 13 12 10 10
7 10 12 13 13 12 12 12 13 14 14 14 14 13 13 12 10 9 9 11 13 14 14 14 15 15 15 15 14 14 14 15 15 15 15 14 14 15 14 14 13 12 10 8 10 17 22 25 24 22 19 16 14 12 12 11 12 13 15 17 17 16 15 14 14 14 14 13 12
13 14 15 15 14 13 13 14 15 16 15 15 14 13 12 12 11 10 10 11 14 15 16 15 15 15 15 16 16 16 16 16 16 16 15 14 14 14 15 14 13 11 11 11 8 11 18 24 25 23 20 16 14 13 11 11 12 13 14 15 14 14 13 12 12 13 15 17 17
15 15 16 16 15 15 15 16 16 16 16 15 14 13 12 12 11 11 11 12 15 16 17 16 15 15 15 16 17 18 18 18 18 17 16 15 14 15 15 15 13 12 12 14 12 11 15 22 25 24 21 17 15 13 12 12 14 14 14 13 13 13 13 12 12 13 15 19 22
15 16 16 16 16 16 17 18 17 16 15 15 15 14 13 12 12 12 13 14 15 16 16 16 16 15 15 17 19 20 20 19 18 17 16 15 16 16 17 15 14 14 14 15 15 14 14 19 23 23 21 16 14 13 12 13 14 14 13 12 12 12 12 12 12 12 14 17 19
15 16 16 16 17 18 19 19 18 17 16 16 16 14 12 11 12 13 14 14 15 15 15 15 16 17 17 18 19 20 20 19 17 16 16 16 17 17 17 16 15 15 15 16 16 15 15 15 18 19 19 15 14 12 12 13 14 15 14 12 12 11 12 12 12 12 13 14 14
Wind_Direction
203 200 197 196 196 197 199 201 196 190 185 182 181 179 179 180 183 186 188 190 193 195 196 196 197 199 200 199 198 197 194 185 181 182 186 188 188 187 185 183 179 176 173 173 172 173 175 178 179 179 180 182 185 186 185 185 184 183 181 180 181 182 184 187 190 192 194 200 202
204 200 196 193 194 195 197 198 195 190 186 184 182 180 179 179 182 184 186 189 191 192 192 194 195 197 199 199 197 197 194 186 179 180 183 186 187 185 183 183 179 176 173 172 172 172 175 178 177 177 176 178 182 185 186 187 184 182 180 180 180 181 184 189 192 192 193 198 200
205 199 194 191 192 193 195 195 194 191 188 185 183 180 179 179 182 183 185 187 189 189 190 192 194 196 197 198 197 197 195 188 179 179 182 184 185 184 183 183 179 175 173 172 172 172 174 177 177 176 174 175 181 184 186 187 182 180 180 180 178 179 183 190 192 192 193 197 199
204 198 193 190 190 192 193 194 193 192 189 186 182 180 180 180 181 182 183 183 186 188 190 191 193 194 195 197 196 196 194 189 179 178 180 182 183 183 183 182 180 176 173 172 172 172 172 175 176 176 175 175 180 184 186 185 179 178 179 180 178 179 181 188 191 192 192 195 197
203 198 192 189 190 191 193 196 195 194 191 187 182 180 180 181 180 180 180 181 185 188 190 190 191 192 194 195 195 194 193 189 179 177 179 181 181 181 181 182 180 177 174 172 172 171 171 173 175 176 176 176 179 184 186 183 176 174 177 178 181 182 183 186 190 192 192 192 194
202 197 193 190 190 192 195 199 197 195 192 187 182 180 179 180 180 180 180 182 185 187 187 188 189 190 191 193 193 193 192 190 181 178 178 180 180 180 180 182 181 178 175 173 172 171 170 172 174 176 176 175 179 184 185 180 173 172 175 179 184 186 185 185 189 191 191 190 190
205 199 195 192 191 194 197 200 198 195 191 186 182 180 180 180 180 181 181 182 183 183 184 185 188 189 189 190 191 191 191 190 184 180 179 179 179 179 179 181 181 179 176 174 172 171 171 172 174 175 175 175 179 185 186 179 171 171 176 180 184 187 188 186 189 191 191 190 190
215 207 201 196 195 195 197 198 195 191 188 186 184 182 180 179 179 179 179 179 181 181 182 184 187 187 188 188 188 189 189 189 185 181 180 178 178 178 179 179 181 179 177 175 174 173 172 173 175 174 173 175 179 185 186 180 173 174 179 181 182 187 191 191 191 192 192 191 193
229 218 212 205 200 197 196 194 190 187 186 186 185 183 180 179 178 177 177 179 180 180 180 183 185 186 186 187 187 187 188 188 185 183 182 180 178 178 178 178 180 180 178 176 176 175 174 175 177 176 175 177 179 185 186 182 178 179 182 182 181 185 191 194 193 193 193 193 195
245 226 217 211 204 199 195 191 188 186 186 186 184 181 179 178 178 177 178 179 178 178 179 182 183 184 185 186 186 186 187 188 187 186 185 183 178 177 177 178 179 179 178 178 177 176 176 176 178 178 177 179 181 185 187 184 182 182 183 183 182 184 188 194 193 193 193 194 195
258 230 214 205 200 196 194 192 190 189 187 186 182 179 178 178 178 178 177 176 175 177 180 181 181 182 183 185 185 185 186 188 188 188 187 184 179 177 177 177 178 178 178 178 178 177 178 179 179 179 178 179 182 185 187 185 184 184 184 183 184 185 187 193 192 192 193 194 195
269 237 212 199 194 192 192 192 192 190 188 186 181 178 177 179 178 178 176 175 175 178 180 180 180 180 181 182 183 183 184 187 188 189 187 184 180 179 179 177 176 176 177 178 178 178 179 181 181 180 179 179 182 186 187 186 185 185 186 186 187 188 189 191 191 191 191 192 192
275 245 214 197 191 189 189 191 191 190 188 184 179 177 177 179 178 176 175 175 176 177 179 179 179 179 180 180 179 180 182 185 188 189 188 185 182 181 180 178 176 175 176 178 179 180 181 182 182 181 180 180 182 185 187 186 186 186 187 188 189 190 190 191 190 190 190 190 190
278 251 217 196 189 186 186 188 188 188 186 182 178 176 176 177 177 175 174 175 176 177 177 178 179 179 179 177 176 177 179 183 186 188 188 186 183 182 182 180 178 176 176 178 180 182 183 183 183 183 182 181 182 184 186 186 187 187 188 188 190 191 191 191 189 189 189 189 189
282 254 220 196 187 183 184 185 186 185 184 181 177 175 174 175 175 174 173 173 174 174 174 175 178 178 177 175 174 175 178 182 185 188 189 187 184 183 184 183 180 179 178 178 181 183 184 183 183 183 184 183 183 184 185 186 187 188 189 189 190 191 191 191 189 189 190 190 188
286 260 222 195 185 181 182 183 183 183 182 181 177 174 173 173 173 172 171 170 171 170 171 173 175 175 174 172 172 174 177 182 185 188 189 188 185 184 185 185 183 181 179 179 180 182 184 183 182 183 184 184 183 183 184 186 187 188 189 189 190 191 191 190 189 190 190 190 189
288 265 225 195 184 181 180 181 180 180 180 179 175 174 173 171 170 170 169 167 165 165 168 172 172 171 170 170 172 174 177 182 185 188 189 189 186 185 185 186 185 182 180 178 179 180 182 183 182 182 183 183 182 183 184 185 187 188 189 189 190 190 190 190 189 190 191 191 190
286 265 226 195 184 180 180 179 178 177 178 177 174 173 171 168 167 167 167 165 163 163 165 168 169 169 169 169 172 174 177 182 185 188 190 190 187 185 185 186 185 183 181 179 178 179 180 181 180 181 181 182 182 182 183 184 187 188 189 190 190 190 190 189 190 191 192 193 192
284 261 222 193 183 179 178 177 175 175 175 174 172 170 168 164 163 163 164 164 162 162 163 165 166 168 169 170 172 175 178 182 185 188 189 190 187 186 185 184 184 183 181 180 178 179 179 181 180 180 180 180 181 181 182 184 186 188 189 190 190 190 190 189 190 192 193 194 193
282 254 214 190 181 177 175 174 173 172 172 171 169 167 165 162 160 160 161 163 162 162 161 162 164 166 168 170 173 175 179 183 186 188 189 190 188 186 185 183 182 183 182 181 179 180 180 182 180 180 180 180 180 181 182 183 185 187 189 190 191 191 191 189 190 192 194 195 193
284 250 207 185 177 173 171 170 169 168 168 167 166 164 162 159 158 159 160 161 160 160 160 161 163 165 167 170 173 176 179 183 186 188 189 189 188 186 184 182 181 182 182 182 180 180 181 183 182 181 181 181 181 182 182 182 184 186 188 190 192 193 192 190 191 192 194 195 194
293 258 203 180 171 167 164 163 163 163 163 163 162 160 157 155 156 157 157 156 157 158 160 162 163 164 166 169 172 175 178 181 185 187 187 187 187 185 183 181 181 182 183 183 181 180 181 182 181 181 181 182 184 184 184 184 185 186 188 190 191 192 193 192 192 193 194 194 194
303 278 192 170 162 158 155 155 156 157 157 157 156 155 153 151 151 150 151 152 155 157 159 160 162 163 165 167 172 176 178 180 183 184 184 183 182 181 180 181 184 187 189 188 184 180 178 178 179 180 182 185 186 186 186 186 186 187 189 190 191 192 193 192 193 193 193 193 193
310 305 165 150 152 151 151 151 152 153 153 154 152 151 148 147 145 144 145 148 151 153 155 155 157 159 161 165 173 177 179 179 180 180 179 177 176 176 177 180 187 191 193 193 185 180 178 178 181 184 186 188 190 190 189 188 188 188 190 193 194 195 195 194 194 193 192 191 191
311 307 261 141 148 151 152 151 151 152 152 152 150 147 145 144 142 141 141 142 143 143 142 142 145 149 155 162 172 176 177 176 176 174 172 170 169 168 170 176 183 188 192 195 195 193 192 192 192 191 189 187 189 191 191 191 192 195 198 201 202 202 202 200 198 196 194 192 193
310 297 260 214 179 159 153 152 151 151 149 148 146 145 144 143 141 139 137 136 134 132 130 130 132 137 148 162 174 177 176 172 170 168 166 165 162 160 160 164 171 178 184 188 188 191 196 200 199 197 194 192 191 191 193 196 202 207 210 212 213 212 211 208 205 203 201 197 195
312 296 257 230 222 195 164 151 148 146 145 145 145 143 143 142 141 139 135 131 129 127 125 126 128 132 144 164 177 179 177 171 167 165 164 161 158 155 154 154 159 166 172 172 173 179 185 189 189 189 190 193 193 194 196 202 209 215 218 219 220 218 214 208 201 194 185 172 165
313 297 263 232 230 225 212 184 164 154 150 149 149 148 145 143 143 142 137 130 126 126 128 132 133 135 146 167 178 179 176 168 164 162 161 161 169 177 182 181 175 170 166 163 170 175 178 179 178 179 182 189 198 203 208 212 215 218 220 222 220 213 203 191 175 158 142 126 118
306 289 261 232 226 225 224 220 209 192 173 164 164 163 162 160 159 156 149 139 135 137 140 144 144 152 165 177 177 175 172 167 166 166 170 180 196 204 208 206 201 191 178 169 174 178 181 181 179 179 182 190 204 213 215 214 216 218 220 220 210 193 175 161 148 139 132 126 119
296 277 253 230 222 219 218 217 214 206 194 182 181 181 181 183 185 183 177 165 156 154 156 163 170 180 187 191 183 178 176 176 180 184 191 198 207 212 214 212 210 201 187 175 179 182 185 185 184 185 187 192 203 210 211 208 209 207 203 194 175 162 154 148 142 137 133 131 122
286 269 248 229 223 219 217 215 214 210 203 190 186 185 187 191 193 191 186 179 176 177 180 184 184 188 193 200 193 188 185 188 190 193 196 199 201 205 207 208 203 189 172 168 175 179 182 184 186 188 189 189 197 202 200 190 172 149 130 126 138 144 145 141 136 136 136 135 128
274 258 242 229 224 220 217 216 212 208 202 194 189 187 187 190 190 189 189 191 194 193 191 190 185 187 192 199 199 194 189 184 185 189 193 195 193 191 184 170 142 130 133 145 147 145 143 141 144 144 140 130 103 87 84 88 87 85 84 85 92 102 110 114 120 127 133 134 131
260 246 235 227 225 222 219 215 209 204 199 194 189 185 183 182 183 186 190 194 195 192 188 187 185 186 190 196 198 197 195 191 187 186 184 175 140 107 86 71 70 91 111 119 114 109 105 102 99 95 90 85 83 81 80 81 81 80 77 74 72 73 77 83 90 98 109 119 125
251 239 228 222 224 223 221 215 209 201 170 146 150 154 160 169 178 180 175 168 173 175 176 180 183 187 191 195 196 194 192 186 177 156 124 99 89 79 70 59 49 69 97 112 109 106 104 101 98 95 92 88 86 84 82 82 81 80 78 75 72 70 70 71 71 72 76 85 101
241 226 205 186 177 169 168 170 152 110 80 75 75 73 75 88 103 109 104 94 83 76 73 71 78 84 87 86 107 111 105 95 91 88 85 84 83 79 73 65 55 57 79 109 112 112 109 106 102 99 95 91 86 83 82 82 81 80 78 76 70 67 65 64 63 62 62 67 79
217 156 110 90 82 82 87 93 91 85 78 74 71 69 68 68 73 80 87 88 82 78 74 71 69 68 67 64 64 68 75 81 82 82 82 84 86 84 80 72 60 50 55 92 112 115 114 110 105 101 96 91 88 87 86 86 84 81 78 74 69 65 62 61 60 58 58 60 67
93 90 88 85 83 83 84 85 83 81 78 75 73 73 73 72 72 76 82 87 86 83 80 76 75 75 75 74 71 70 71 77 80 80 80 80 84 84 82 73 61 47 40 50 97 112 114 110 106 102 99 96 96 95 94 91 86 81 77 74 71 68 66 65 63 60 59 58 61
78 83 85 85 84 83 81 79 79 78 77 75 73 72 73 73 72 73 77 84 87 86 82 79 78 78 79 79 75 69 65 65 70 72 73 71 74 77 77 72 61 50 40 36 60 95 108 109 106 105 104 104 105 103 99 94 89 85 81 79 76 73 71 69 66 64 62 61 63
74 78 81 83 83 81 79 76 75 76 75 74 71 69 69 70 72 72 74 78 83 84 84 82 80 80 80 80 76 69 63 58 60 62 65 65 66 69 71 71 64 55 47 43 48 70 93 104 105 106 106 108 108 107 103 99 94 92 89 88 85 80 75 72 70 68 66 65 65
72 76 79 81 82 81 78 76 74 74 73 72 69 67 66 69 74 76 76 77 79 81 83 82 80 78 77 77 75 70 65 60 58 59 62 64 65 65 67 69 65 59 53 49 51 60 77 94 102 106 107 108 109 108 106 103 100 97 94 92 90 86 81 76 73 71 69 66 65
70 74 78 81 81 80 79 77 75 73 72 71 69 68 67 70 75 78 79 79 79 79 80 79 77 75 74 73 73 72 70 66 62 60 61 63 63 63 63 64 63 60 56 53 54 57 65 78 93 101 106 109 110 109 108 106 103 101 98 96 94 92 88 83 78 74 71 69 66